Stations météo

Publicité
Pau, France (7610): Température de l'air & dewpoint: 14.06.2018 09:00:00 - 20.06.2018 09:00:00 (CEST)Pau, France (7610): Température de l'air 5cm: 14.06.2018 09:00:00 - 20.06.2018 09:00:00 (CEST)Pau, France (7610): Température de l'air -20cm & Température de l'air -100cm: 14.06.2018 09:00:00 - 20.06.2018 09:00:00 (CEST)Pau, France (7610): Vitesse du vent & gusts: 14.06.2018 09:00:00 - 20.06.2018 09:00:00 (CEST)Pau, France (7610): Direction du vent: 14.06.2018 09:00:00 - 20.06.2018 09:00:00 (CEST)Pau, France (7610): reduced air pressure: 14.06.2018 09:00:00 - 20.06.2018 09:00:00 (CEST)Pau, France (7610): visibility: 14.06.2018 09:00:00 - 20.06.2018 09:00:00 (CEST)Pau, France (7610): Ensoleillement: 14.06.2018 09:00:00 - 20.06.2018 09:00:00 (CEST)Pau, France (7610): Quantités de précipitations: 14.06.2018 09:00:00 - 20.06.2018 09:00:00 (CEST)
Date & Time tt [°C] td [°C] tt 5cm [°C] tt -20cm [°C] tt -100cm [°C] ff [km/h] ff [knt] fx [km/h] fx [knt] dd ppp [hPa] vv [km] sd [min] rr [mm]
20.06.2018 09:00:00 - - - - - - - - - - - - - -
20.06.2018 08:00:00 18,8 16,2 15,2 20,0 17,1 6 3 9 5 ESE 1018,5 15 60 0,0
20.06.2018 07:00:00 16,4 15,6 13,8 20,1 17,1 3 2 9 5 ENE 1018,7 16 13 0,0
20.06.2018 06:00:00 15,9 15,1 13,5 20,1 17,1 6 3 8 5 E 1018,5 12 0 0,0
20.06.2018 05:00:00 16,3 15,2 13,3 20,2 17,1 5 3 7 4 SE 1018,7 19 0 0,0
20.06.2018 04:00:00 17,1 15,3 14,1 20,2 17,1 2 1 6 4 SW 1019,0 17 0 0,0
20.06.2018 03:00:00 17,2 15,5 14,7 20,2 17,1 4 2 5 3 E 1019,4 24 0 0,0
20.06.2018 02:00:00 17,6 15,8 14,9 20,2 17,1 3 2 9 5 E 1019,7 10 0 0,0
20.06.2018 01:00:00 19,3 15,8 15,6 20,2 17,0 5 3 10 6 SSE 1019,8 25 0 0,0
20.06.2018 00:00:00 19,8 16,1 16,5 20,1 17,0 4 2 7 4 E 1019,8 30 0 0,0
19.06.2018 23:00:00 20,4 16,4 17,3 20,1 17,0 5 3 9 5 NE 1020,0 30 0 0,0
19.06.2018 22:00:00 22,3 16,6 18,4 20,0 17,1 6 3 11 6 NE 1019,5 8 17 0,0
19.06.2018 21:00:00 24,6 16,3 22,1 19,8 17,1 9 5 18 10 NE 1019,6 39 58 0,0
19.06.2018 20:00:00 25,8 15,5 23,1 19,7 17,1 7 4 21 11 NNE 1019,8 45 39 0,0
19.06.2018 19:00:00 25,8 15,5 24,9 19,6 17,1 6 4 21 11 E 1020,1 46 33 0,0
19.06.2018 18:00:00 25,9 16,4 26,3 19,4 17,0 8 4 23 12 ENE 1020,5 41 34 0,0
19.06.2018 17:00:00 25,2 15,8 26,9 19,2 17,0 11 6 21 11 NE 1021,0 34 17 0,0
19.06.2018 16:00:00 25,4 15,7 28,5 19,1 17,0 6 3 26 14 ESE 1021,2 16 34 0,0
19.06.2018 15:00:00 25,1 16,0 27,1 19,0 17,0 11 6 - - ENE 1021,7 39 31 0,0
19.06.2018 14:00:00 23,9 15,9 27,3 18,9 17,0 13 7 23 13 NNE 1022,2 39 29 0,0
19.06.2018 13:00:00 23,7 16,5 27,0 18,9 17,0 10 6 24 13 E 1022,6 20 38 0,0
19.06.2018 12:00:00 22,9 16,0 25,8 18,9 17,0 10 6 19 10 NE 1023,1 30 25 0,0
19.06.2018 11:00:00 20,9 16,5 24,2 18,9 17,0 5 3 13 7 NE 1023,6 19 12 0,0
19.06.2018 10:00:00 19,6 15,3 23,2 19,0 17,1 6 3 13 7 NE 1024,4 24 33 0,0
19.06.2018 09:00:00 18,6 15,5 19,0 19,0 17,0 6 3 16 9 E 1024,8 19 35 0,0
19.06.2018 08:00:00 16,5 15,0 16,0 19,0 17,1 4 2 6 3 N 1025,2 16 0 0,0
19.06.2018 07:00:00 16,3 14,7 15,6 19,1 17,1 3 2 5 3 ENE 1025,2 19 0 0,0
19.06.2018 06:00:00 16,2 14,2 15,7 19,1 17,1 3 1 4 2 ESE 1025,3 5 0 0,0
19.06.2018 05:00:00 16,2 14,4 15,7 19,1 17,0 0 0 13 7 N 1025,5 23 0 0,0
19.06.2018 04:00:00 16,4 14,6 16,1 19,2 17,1 5 3 12 7 N 1025,7 20 0 0,0
19.06.2018 03:00:00 16,6 14,6 16,2 19,1 17,0 7 4 13 7 NNW 1025,7 18 0 0,0
19.06.2018 02:00:00 16,9 15,4 16,5 19,1 17,0 6 3 19 10 NNW 1025,9 17 0 0,0
19.06.2018 01:00:00 17,0 15,9 16,3 19,1 17,0 8 4 14 7 WNW 1026,0 21 0 0,0
19.06.2018 00:00:00 16,8 15,7 15,3 19,1 17,0 7 4 13 7 W 1026,4 27 0 0,0
18.06.2018 23:00:00 17,5 15,8 16,3 19,1 17,1 8 5 21 12 W 1026,2 27 0 0,0
18.06.2018 22:00:00 18,6 16,0 17,9 19,0 17,1 16 9 28 15 NW 1025,5 29 16 0,0
18.06.2018 21:00:00 20,3 16,3 20,0 18,9 17,0 16 9 23 12 NW 1025,3 29 57 0,0
18.06.2018 20:00:00 20,7 15,9 20,8 18,7 17,0 15 8 24 13 NW 1025,0 25 28 0,0
18.06.2018 19:00:00 21,9 16,0 23,8 18,6 17,0 16 9 26 14 NW 1024,9 24 37 0,0
18.06.2018 18:00:00 21,7 16,2 24,8 18,5 17,0 11 6 26 14 NW 1025,2 24 2 0,0
18.06.2018 17:00:00 21,6 15,9 24,7 18,4 17,1 13 7 35 19 NNW 1025,5 20 18 0,0
18.06.2018 16:00:00 21,5 15,1 26,0 18,3 17,0 7 4 20 11 NW 1025,6 31 18 0,0
18.06.2018 15:00:00 21,1 15,2 27,2 18,3 17,0 9 5 16 9 W 1025,8 17 39 0,0
18.06.2018 14:00:00 20,1 14,7 21,7 18,3 17,1 4 2 13 7 WSW 1026,3 16 11 0,0
18.06.2018 13:00:00 18,7 14,2 20,9 18,3 17,1 4 2 13 7 WSW 1026,8 31 0 0,0
18.06.2018 12:00:00 18,1 14,4 19,4 18,3 17,1 6 4 16 9 WNW 1027,0 29 4 0,0
18.06.2018 11:00:00 18,2 13,5 18,5 18,3 17,0 9 5 20 11 W 1027,0 19 32 0,0
18.06.2018 10:00:00 16,5 13,2 17,8 18,4 17,1 8 4 15 8 W 1027,5 13 4 0,0
18.06.2018 09:00:00 15,4 12,7 16,0 18,4 17,0 4 2 9 5 S 1027,2 20 0 0,0
18.06.2018 08:00:00 14,2 12,4 13,0 18,5 17,1 6 3 13 7 SE 1026,9 18 0 0,0
18.06.2018 07:00:00 13,1 11,8 12,3 18,6 17,1 6 3 9 5 ESE 1026,9 13 0 0,0
18.06.2018 06:00:00 12,5 11,6 11,1 18,7 17,1 6 3 8 5 SE 1026,6 13 0 0,0
18.06.2018 05:00:00 11,9 11,1 9,5 18,7 17,1 3 2 7 4 ENE 1026,6 17 0 0,0
18.06.2018 04:00:00 11,9 11,1 9,5 18,8 17,1 2 1 8 4 E 1026,7 13 0 0,0
18.06.2018 03:00:00 12,1 11,0 9,2 18,8 17,0 3 1 13 7 ENE 1026,9 13 0 0,0
18.06.2018 02:00:00 13,0 11,4 10,0 18,9 17,1 6 4 13 7 SSW 1026,7 10 0 0,0
18.06.2018 01:00:00 13,7 11,4 11,2 18,9 17,1 9 5 13 7 WSW 1026,8 12 0 0,0
18.06.2018 00:00:00 14,3 11,8 12,6 18,8 17,1 11 6 17 9 W 1026,9 26 0 0,0
17.06.2018 23:00:00 15,5 12,1 13,3 18,8 17,1 11 6 17 9 WNW 1026,5 29 0 0,0
17.06.2018 22:00:00 16,8 12,3 15,2 18,7 17,0 14 8 25 14 WNW 1025,7 34 16 0,0
17.06.2018 21:00:00 19,1 11,9 18,2 18,7 17,0 15 8 28 15 W 1025,2 32 60 0,0
17.06.2018 20:00:00 20,8 13,0 19,6 18,6 17,0 22 12 31 17 W 1024,9 24 46 0,0
17.06.2018 19:00:00 21,1 13,8 21,0 18,5 17,0 16 9 27 15 NW 1024,2 32 39 0,0
17.06.2018 18:00:00 20,6 13,8 22,3 18,4 17,0 15 8 24 13 WNW 1024,2 35 16 0,0
17.06.2018 17:00:00 20,6 13,8 21,9 18,3 17,0 11 6 23 13 W 1024,2 36 16 0,0
17.06.2018 16:00:00 20,8 12,5 23,1 18,3 17,0 11 6 32 18 WSW 1024,3 45 10 0,0
17.06.2018 15:00:00 19,9 13,4 21,7 18,2 17,0 9 5 19 10 W 1024,3 43 1 0,0
17.06.2018 14:00:00 17,8 13,1 19,5 18,2 17,0 8 4 24 13 WNW 1024,7 57 0 0,0
17.06.2018 13:00:00 17,4 13,3 20,0 18,2 17,0 14 7 22 12 NW 1024,7 46 17 0,0
17.06.2018 12:00:00 17,7 12,8 21,3 18,2 17,0 13 7 22 12 WNW 1024,6 34 11 0,0
17.06.2018 11:00:00 17,1 13,6 20,4 18,2 17,0 10 6 18 10 WNW 1024,9 29 3 0,0
17.06.2018 10:00:00 16,6 13,3 18,2 18,3 17,0 8 4 18 10 WSW 1024,8 20 15 0,0
17.06.2018 09:00:00 15,7 12,4 16,6 18,3 17,0 8 4 13 7 WSW 1024,7 36 5 0,0
17.06.2018 08:00:00 14,8 12,3 13,7 18,4 17,0 4 2 8 4 SSE 1024,2 20 13 0,0
17.06.2018 07:00:00 13,8 11,8 12,6 18,4 17,0 4 2 6 3 SSE 1023,8 26 0 0,0
17.06.2018 06:00:00 13,4 12,3 12,7 18,5 17,0 4 2 6 3 SSE 1023,5 12 0 0,0
17.06.2018 05:00:00 13,0 12,1 11,7 18,6 17,0 2 1 4 2 ENE 1023,4 20 0 0,0
17.06.2018 04:00:00 12,9 11,8 9,7 18,6 17,0 2 1 9 5 NE 1023,3 17 0 0,0
17.06.2018 03:00:00 12,7 11,3 9,5 18,7 17,0 5 3 8 4 S 1023,2 20 0 0,0
17.06.2018 02:00:00 13,2 11,6 10,4 18,7 17,0 5 3 8 4 SSE 1023,4 27 0 0,0
17.06.2018 01:00:00 14,2 11,4 11,5 18,7 17,0 4 2 8 4 W 1023,4 33 0 0,0
17.06.2018 00:00:00 15,2 11,6 13,5 18,7 17,0 6 3 15 8 W 1023,4 36 0 0,0
16.06.2018 23:00:00 15,0 11,6 12,3 18,7 17,0 10 5 15 8 WNW 1023,2 25 0 0,0
16.06.2018 22:00:00 16,4 11,8 14,7 18,7 17,0 11 6 23 12 W 1022,0 24 16 0,0
16.06.2018 21:00:00 18,0 12,4 17,2 18,6 17,0 12 6 24 13 WNW 1021,3 31 16 0,0
16.06.2018 20:00:00 19,2 12,2 19,2 18,6 17,0 17 9 23 13 WNW 1020,7 34 3 0,0
16.06.2018 19:00:00 19,2 14,7 19,8 18,5 17,0 10 5 14 7 W 1020,1 26 0 0,0
16.06.2018 18:00:00 19,0 13,8 19,7 18,5 17,0 4 2 13 7 N 1020,0 25 0 0,0
16.06.2018 17:00:00 19,1 14,4 21,4 18,4 17,0 6 3 17 9 WSW 1020,2 19 6 0,0
16.06.2018 16:00:00 18,8 14,7 21,7 18,4 17,0 7 4 16 9 SW 1020,2 19 5 0,0
16.06.2018 15:00:00 17,7 13,4 18,6 18,4 17,0 7 4 14 7 W 1020,6 22 0 0,0
16.06.2018 14:00:00 16,8 13,5 18,3 18,4 17,0 5 3 17 9 NE 1020,8 17 0 0,0
16.06.2018 13:00:00 16,9 13,4 19,4 18,4 16,9 7 4 18 10 NW 1020,8 20 0 0,0
16.06.2018 12:00:00 16,8 13,9 16,5 18,4 17,0 8 4 19 10 NW 1020,7 19 4 0,0
16.06.2018 11:00:00 15,8 14,0 16,3 18,4 17,0 9 5 16 9 NNW 1020,5 4,0 0 0,0
16.06.2018 10:00:00 16,3 13,4 16,5 18,4 16,9 7 4 13 7 NNW 1019,7 30 0 0,0
16.06.2018 09:00:00 15,6 14,0 15,4 18,5 16,9 6 4 11 6 E 1019,3 21 0 0,0
16.06.2018 08:00:00 15,0 14,2 14,7 18,5 16,9 4 2 16 9 NNW 1019,3 15 0 0,6
16.06.2018 07:00:00 15,0 14,4 14,8 18,6 16,9 6 3 18 10 N 1019,3 1,7 0 1,0
16.06.2018 06:00:00 15,5 14,9 15,4 18,6 16,9 9 5 19 11 NNW 1018,9 2,0 0 0,4
16.06.2018 05:00:00 15,8 15,2 15,6 18,6 16,9 6 3 9 5 WSW 1018,9 4,0 0 0,0
16.06.2018 04:00:00 16,0 15,4 15,8 18,6 16,9 5 3 10 5 SW 1018,9 11 0 0,2
16.06.2018 03:00:00 16,2 15,4 15,9 18,7 16,9 6 3 10 5 WSW 1019,3 6 0 0,0
16.06.2018 02:00:00 16,4 15,3 16,1 18,7 16,9 7 4 13 7 W 1019,5 6 0 0,0
16.06.2018 01:00:00 16,4 15,1 16,2 18,7 16,9 8 5 13 7 SW 1019,6 15 0 0,0
16.06.2018 00:00:00 16,4 15,1 15,9 18,6 16,9 8 4 13 7 W 1019,9 13 0 0,0
15.06.2018 23:00:00 16,9 14,9 16,6 18,6 16,9 9 5 12 6 W 1019,7 15 0 0,0
15.06.2018 22:00:00 17,2 14,8 16,8 18,6 16,9 6 4 14 8 WNW 1019,5 19 0 0,0
15.06.2018 21:00:00 17,8 14,9 17,8 18,5 16,9 11 6 19 10 W 1019,5 22 0 0,0
15.06.2018 20:00:00 18,1 14,4 18,4 18,4 16,9 13 7 22 12 W 1019,4 24 0 0,0
15.06.2018 19:00:00 18,8 14,3 20,1 18,3 16,9 12 7 22 12 WNW 1018,9 29 0 0,0
15.06.2018 18:00:00 19,2 14,7 20,7 18,2 16,9 17 9 26 14 WNW 1019,1 26 0 0,0
15.06.2018 17:00:00 19,4 14,4 22,6 18,2 16,9 17 9 28 15 NW 1019,2 27 13 0,0
15.06.2018 16:00:00 20,3 14,2 23,6 18,2 16,9 8 4 18 10 WSW 1019,0 27 26 0,0
15.06.2018 15:00:00 19,9 13,8 19,1 18,2 16,9 7 4 16 9 W 1018,9 27 23 0,0
15.06.2018 14:00:00 17,7 13,0 19,3 18,1 16,9 10 5 17 9 W 1019,3 28 0 0,0
15.06.2018 13:00:00 17,9 12,6 19,9 18,1 16,9 10 5 16 9 W 1019,2 29 0 0,0
15.06.2018 12:00:00 17,6 12,9 17,9 18,1 16,9 5 3 14 7 W 1019,1 30 0 0,0
15.06.2018 11:00:00 16,9 12,2 19,2 18,2 16,9 5 3 12 6 WNW 1019,1 29 4 0,0
15.06.2018 10:00:00 16,3 13,0 19,2 18,2 16,9 6 4 12 7 NNW 1019,3 26 14 0,0
15.06.2018 09:00:00 15,0 13,4 15,3 18,3 16,9 5 3 12 6 W 1019,5 16 4 0,0
15.06.2018 08:00:00 14,1 13,5 11,6 18,4 16,9 4 2 9 5 NNW 1019,3 12 0 0,0
15.06.2018 07:00:00 13,1 12,3 10,7 18,4 16,9 3 2 4 2 N 1018,8 9 0 0,0
15.06.2018 06:00:00 13,5 12,6 11,4 18,4 16,9 2 1 4 2 N 1018,8 12 0 0,0
15.06.2018 05:00:00 14,1 12,7 11,7 18,5 16,9 4 2 8 4 W 1018,7 18 0 0,0
15.06.2018 04:00:00 15,2 13,0 14,7 18,6 16,9 6 3 9 5 SSW 1019,2 23 0 0,0
15.06.2018 03:00:00 15,4 13,1 15,0 18,6 16,9 3 2 16 8 W 1019,7 31 0 0,0
15.06.2018 02:00:00 15,5 12,8 14,1 18,6 16,9 3 2 11 6 SSW 1019,8 34 0 0,0
15.06.2018 01:00:00 15,5 13,0 14,9 18,6 16,9 9 5 12 7 W 1020,3 31 0 0,0
15.06.2018 00:00:00 15,6 12,9 13,5 18,6 16,9 8 4 20 11 WSW 1020,4 29 0 0,0
14.06.2018 23:00:00 16,3 12,5 15,1 18,6 16,9 12 7 29 16 W 1020,4 31 0 0,0
14.06.2018 22:00:00 17,6 13,1 17,1 18,5 16,9 13 7 27 14 W 1019,7 32 15 0,0
14.06.2018 21:00:00 18,9 13,3 18,7 18,4 16,9 19 10 29 16 WNW 1019,3 38 55 0,0
14.06.2018 20:00:00 20,0 13,7 20,5 18,3 16,9 19 11 31 17 NW 1018,8 33 35 0,0
14.06.2018 19:00:00 20,7 13,4 22,4 18,1 16,9 13 7 31 17 NW 1018,7 25 45 0,0
14.06.2018 18:00:00 20,6 14,0 23,8 17,9 16,9 16 9 29 16 NW 1018,7 40 32 0,0
14.06.2018 17:00:00 20,6 14,3 24,0 17,8 16,9 18 10 39 21 NW 1018,8 45 0 0,0
14.06.2018 16:00:00 20,8 14,4 23,7 17,7 16,9 16 9 32 17 NW 1018,9 20 12 0,0
14.06.2018 15:00:00 20,6 13,8 23,4 17,5 16,9 16 9 - - WNW 1019,1 40 27 0,0
14.06.2018 14:00:00 20,7 12,7 22,9 17,5 16,9 11 6 26 14 N 1019,4 27 44 0,0
14.06.2018 13:00:00 20,1 13,3 21,8 17,4 16,9 11 6 23 12 NW 1019,7 19 33 0,0
14.06.2018 12:00:00 19,2 15,1 22,8 17,4 17,0 9 5 21 12 WNW 1019,7 38 43 0,0
14.06.2018 11:00:00 17,7 14,2 20,6 17,4 16,9 11 6 22 12 NNW 1019,8 19 12 0,0
14.06.2018 10:00:00 16,9 14,2 18,1 17,4 16,9 13 7 21 11 NW 1019,9 18 25 0,0
14.06.2018 09:00:00 15,8 13,8 15,4 17,5 17,0 11 6 20 11 NW 1020,0 16 4 0,0

tt = Température de l'air
td = dewpoint
tt 5cm = Température de l'air 5cm
tt -20cm = Température de l'air -20cm
tt -100cm = Température de l'air -100cm
ff = Vitesse du vent
fx = gusts
dd = Direction du vent
ppp = reduced air pressure
vv = visibility
sd = Ensoleillement
rr = Quantités de précipitations

stations d'obs. à proximité